Home   Weather   Alert   Past weeks
Flag for Canada

Past Weather in Alert, Nunavut, Canada — Yesterday and Last 2 Weeks

Now
13 °F

Cold.


Feels Like: 0 °F
Forecast: 17 / 9 °F
Wind: 10 mph from Southwest

Location: Kap Morris Jesup

Current Time: Oct 14, 2019 at 3:50:02 am

Latest Report: Oct 14, 2019 at 2:00 am


Visibility: N/A

Pressure: 29.78 "Hg

Humidity: 68%

Dew Point: 4 °F

Location of AlertLocation

Past Weather in Alert — Graph

°F

Alert Temperature Yesterday

Maximum temperature yesterday: 13 °F (at 10:00 pm)
Minimum temperature yesterday: 6 °F (at 7:00 pm)
Average temperature yesterday: 10 °F

High & Low Weather Summary for the Past Weeks

 TemperatureHumidityPressure
High31 °F (Oct 6, 10:00 am)98% (Sep 30, 6:00 am)30.08 "Hg (Sep 30, 6:00 am)
Low5 °F (Oct 3, 12:00 pm)53% (Oct 10, 12:00 pm)29.15 "Hg (Oct 6, 5:00 am)
Average17 °F79%29.78 "Hg
* Reported Sep 29 2:00 am — Oct 14 2:00 am, Alert. Weather by CustomWeather, © 2019

Note: Actual official high and low records may vary slightly from our data, if they occured in-between our weather recording intervals... More about our weather records

Advertising

Alert Weather History for the Previous 24 Hours

Scroll right to see more
 ConditionsComfort  
Time TempWeatherWind HumidityBarometerVisibility
2:00 am
Mon, Oct 14
13 °FCold.10 mph68%29.78 "HgN/A
1:00 am18 °FCold.12 mph65%29.78 "HgN/A
12:00 am15 °FCold.12 mph69%29.79 "HgN/A
11:00 pm
Sun, Oct 13
12 °FCold.9 mph71%29.80 "HgN/A
10:00 pm13 °FCold.9 mph72%29.81 "HgN/A
9:00 pm12 °FCold.13 mph70%29.82 "HgN/A
8:00 pm11 °FCold.10 mph74%29.83 "HgN/A
7:00 pm6 °FFrigid.5 mph79%29.85 "HgN/A
6:00 pm6 °FFrigid.7 mph79%29.87 "HgN/A
5:00 pm10 °FCold.8 mph79%29.87 "HgN/A
4:00 pm10 °FFrigid.3 mph88%29.88 "HgN/A
3:00 pm11 °FCold.2 mph86%29.89 "HgN/A
2:00 pm11 °FCold.5 mph88%29.89 "HgN/A
1:00 pm10 °FCold.3 mph89%29.90 "HgN/A
12:00 pm10 °FCold.5 mph89%29.90 "HgN/A
11:00 am10 °FFrigid.5 mph89%29.91 "HgN/A
10:00 am10 °FFrigid.5 mph89%29.92 "HgN/A
9:00 am10 °FFrigid.5 mph89%29.92 "HgN/A
8:00 am10 °FCold.6 mph89%29.93 "HgN/A
7:00 am11 °FCold.6 mph89%29.93 "HgN/A
6:00 am10 °FFrigid.5 mph89%29.94 "HgN/A
5:00 am10 °FFrigid.5 mph89%29.94 "HgN/A
4:00 am10 °FCold.3 mph90%29.94 "HgN/A
3:00 am10 °FCold.5 mph89%29.94 "HgN/A
Weather by CustomWeather, © 2019

See weather overview